Find Starlink 32086

NORAD ID: 59703 Int'l Des: 2024-086 Owner: SPXS Country: US Constellation: starlink operational
LEOCIRCULAR

現在のビュー

3D地球を読み込み中...

Starlink 32086について

説明を読み込み中...

次回通過

Passes for default location (London). Set your location on the main map for personalized predictions.

高度履歴

Loading altitude history...

軌道要素

1 59703U 24086X 26158.58153030 -.00000645 00000-0 -13904-4 0 9999
2 59703 43.0027 271.9173 0001308 143.9925 216.1015 15.27574726117862
Epoch: Jun 7, 2026 • Age: 35 hours

現在のステータス

高度 484.2 km
速度 7.63 km/s
衛星直下点 32.17°N, 37.91°E
打ち上げ日 May 8, 2024
運用期間 2 years
タイプ internet

技術仕様

分類 Payload
質量 730.00 kg
乾燥質量 700.00 kg
総質量 730.00 kg
長さ 0.30 m
直径 4.10 m
スパン 29.00 m
形状 Box + pan
製造者 SPXS
バスタイプ Starlink V2M
フェーズステータス In Orbit
所有者/国 SPXS/US

Most Searched